"2009-07-06 00:00:00",1037102,1.26,161,5.522,0.068,16.51,108.4206,20.84,21.88,44.32,0,111.2,13.15,21.66,123.0
"2009-07-06 00:00:30",1037103,1.316,164.7,4.34,0.088,16.4,108.4217,20.84,21.88,44.52,0,111.2,13.15,21.67,126.7
"2009-07-06 00:01:00",1037104,1.243,154,8.71,0.15,16.29,108.4215,20.84,21.89,44.45,0,111.2,13.15,21.67,116.0
"2009-07-06 00:01:30",1037105,0.994,140,11.58,0.137,16.39,108.4203,20.84,21.87,44.37,0,111.2,13.15,21.66,102.0
"2009-07-06 00:02:00",1037106,1.113,144.6,5.593,0.127,16.5,108.4209,20.84,21.89,44.42,0,111.2,13.14,21.66,106.6
"2009-07-06 00:02:30",1037107,1.026,139.8,5.908,0.181,16.6,108.4203,20.84,21.88,44.39,0,111.2,13.14,21.66,101.8
"2009-07-06 00:03:00",1037108,0.754,154.8,7.987,0.122,16.63,108.4203,20.84,21.89,44.38,0,111.2,13.14,21.66,116.8
"2009-07-06 00:03:30",1037109,0.838,155.3,10.45,0.142,16.5,108.4203,20.84,21.89,44.45,0,111.2,13.14,21.66,117.3
"2009-07-06 00:04:00",1037110,0.632,150.7,15.67,0.276,16.62,108.4203,20.84,21.88,44.41,0,111.2,13.14,21.66,112.7
"2009-07-06 00:04:30",1037111,0.601,175.8,15.2,0.281,16.57,108.397,20.78,21.88,44.34,0,111.2,13.14,21.60,137.8
"2009-07-06 00:05:00",1037112,0.6,157.2,8.85,0.166,16.73,108.3482,20.65,21.83,44.66,0,111.2,13.14,21.48,119.2
"2009-07-06 00:05:30",1037113,0.864,129.3,8.65,0.121,16.74,108.2878,20.5,21.75,45.16,0,111.2,13.14,21.32,91.3
"2009-07-06 00:06:00",1037114,1.141,127.3,9.33,0.458,16.88,108.2241,20.33,21.66,45.87,0,111.2,13.14,21.16,89.3
"2009-07-06 00:06:30",1037115,0.872,164.3,17.06,0.194,16.86,108.1542,20.16,21.55,45.89,0,111.2,13.14,20.98,126.3
"2009-07-06 00:07:00",1037116,0.985,200.1,11.85,0.124,16.58,108.0933,20,21.41,46.38,0,111.2,13.13,20.82,162.1
"2009-07-06 00:07:30",1037117,0.71,180.6,12.98,0.231,16.57,108.0468,19.88,21.27,47.11,0,111.2,13.13,20.70,142.6
"2009-07-06 00:08:00",1037118,0.9,165.4,12.12,0.415,16.42,108.0136,19.79,21.16,47.28,0,111.2,13.13,20.62,127.4
"2009-07-06 00:08:30",1037119,1.929,150.1,5.869,0.492,16.25,107.9876,19.73,21.05,47.77,0,111.2,13.13,20.55,112.1
"2009-07-06 00:09:00",1037120,3.01,146.1,6.432,0.299,16.21,107.9978,19.75,21,49.06,0,111.2,13.13,20.57,108.1
"2009-07-06 00:09:30",1037121,3.422,149.7,5.852,0.243,16.35,108.0104,19.79,20.96,49.65,0,111.1,13.13,20.61,111.7
"2009-07-06 00:10:00",1037122,2.952,150.5,4.707,0.311,16.41,108.0095,19.78,20.94,50.38,0,111.1,13.13,20.61,112.5
"2009-07-06 00:10:30",1037123,3.58,144.1,4.342,0.265,16.4,108.0132,19.79,20.93,51.13,0,111.1,13.13,20.61,106.1
"2009-07-06 00:11:00",1037124,4.187,152.8,2.914,0.233,16.64,108.0242,19.82,20.93,51.27,0,111.1,13.13,20.64,114.8
"2009-07-06 00:11:30",1037125,3.643,155.5,9.65,0.508,16.81,108.0433,19.87,20.93,51.49,0,111.1,13.13,20.69,117.5
"2009-07-06 00:12:00",1037126,3.129,149.3,9.44,0.288,16.71,108.0317,19.84,20.94,51.75,0,111.1,13.14,20.66,111.3
"2009-07-06 00:12:30",1037127,3.315,163.7,6.715,0.442,16.64,107.975,19.7,20.9,51.98,0,111.1,13.14,20.52,125.7
"2009-07-06 00:13:00",1037128,3.118,155.3,8.73,0.266,16.63,107.9566,19.65,20.83,52.06,0,111.1,13.14,20.47,117.3
"2009-07-06 00:13:30",1037129,3.645,160.2,4.903,0.186,16.62,107.9488,19.63,20.79,52,0,111.1,13.14,20.45,122.2
"2009-07-06 00:14:00",1037130,3.4,165.6,4.235,0.219,16.61,107.9485,19.63,20.76,52.55,0,111.1,13.14,20.45,127.6
"2009-07-06 00:14:30",1037131,2.928,152.4,4.173,0.161,16.6,107.9491,19.63,20.74,52.29,0,111.1,13.14,20.45,114.4
"2009-07-06 00:15:00",1037132,3.073,141.7,2.911,0.313,16.65,107.9496,19.63,20.74,51.68,0,111.1,13.14,20.45,103.7
"2009-07-06 00:15:30",1037133,2.917,146.4,7.548,0.199,16.64,107.9505,19.63,20.74,51.36,0,111.1,13.14,20.45,108.4
"2009-07-06 00:16:00",1037134,3.008,157.4,4.416,0.267,16.69,107.9491,19.63,20.74,51.26,0,111.1,13.14,20.45,119.4
"2009-07-06 00:16:30",1037135,3.247,157.3,7.404,0.484,16.92,107.9491,19.63,20.72,51.29,0,111.1,13.15,20.45,119.3
"2009-07-06 00:17:00",1037136,3.782,164.3,4.044,0.26,16.72,107.9488,19.63,20.72,53.22,0,111.1,13.15,20.45,126.3
"2009-07-06 00:17:30",1037137,3.485,160.2,5.79,0.261,16.59,107.9488,19.63,20.73,53.75,0,111.1,13.15,20.45,122.2
"2009-07-06 00:18:00",1037138,4.396,167.7,5.665,0.395,16.58,107.9488,19.63,20.72,53.3,0,111.1,13.15,20.45,129.7
"2009-07-06 00:18:30",1037139,4.127,166.3,8.66,0.326,16.8,107.9373,19.6,20.7,53.33,0,111.1,13.15,20.42,128.3
"2009-07-06 00:19:00",1037140,2.74,139.2,5.946,0.548,16.92,107.9193,19.55,20.68,52.15,0,111.1,13.15,20.37,101.2
"2009-07-06 00:19:30",1037141,2.868,158.2,6.332,0.35,16.97,107.9154,19.54,20.66,51.66,0,111.1,13.15,20.36,120.2
"2009-07-06 00:20:00",1037142,2.62,161.4,6.811,0.353,16.96,107.9154,19.54,20.64,51.64,0,111.1,13.15,20.36,123.4
"2009-07-06 00:20:30",1037143,2.474,176.8,4.838,0.212,16.95,107.9096,19.53,20.63,51.86,0,111.1,13.15,20.35,138.8
"2009-07-06 00:21:00",1037144,2.6,194.7,7.796,0.213,16.97,107.894,19.49,20.63,51.89,0,111.1,13.15,20.31,156.7
"2009-07-06 00:21:30",1037145,1.698,202.9,9.18,0.297,16.83,107.8862,19.47,20.61,51.92,0,111.1,13.15,20.29,164.9
"2009-07-06 00:22:00",1037146,2.103,169.9,5.622,0.247,16.94,107.8875,19.47,20.6,52.05,0,111.1,13.15,20.29,131.9
"2009-07-06 00:22:30",1037147,2.095,187.5,18.01,0.4,17.04,107.8923,19.48,20.58,52.07,0,111.1,13.15,20.30,149.5
"2009-07-06 00:23:00",1037148,1.665,202.5,11.4,0.322,17.22,107.8941,19.49,20.57,52.1,0,111.1,13.15,20.31,164.5
"2009-07-06 00:23:30",1037149,1.46,189.4,6.559,0.178,17.3,107.885,19.46,20.56,52.09,0,111.1,13.15,20.28,151.4
"2009-07-06 00:24:00",1037150,1.773,168.9,6.435,0.129,17.31,107.8758,19.44,20.54,52.03,0,111.1,13.15,20.26,130.9
"2009-07-06 00:24:30",1037151,1.973,176.2,7.86,0.174,17.4,107.875,19.44,20.52,51.93,0,111.1,13.14,20.26,138.2
"2009-07-06 00:25:00",1037152,2.54,178.3,6.467,0.304,17.36,107.8736,19.44,20.52,52.38,0,111.1,13.14,20.26,140.3
"2009-07-06 00:25:30",1037153,2.875,177.7,3.502,0.239,17.41,107.8466,19.37,20.49,53.97,0,111,13.14,20.19,139.7
"2009-07-06 00:26:00",1037154,3.468,179.4,3.226,0.251,17.46,107.8478,19.37,20.44,53.8,0,111,13.14,20.19,141.4
"2009-07-06 00:26:30",1037155,3.514,169.8,6.243,0.391,17.49,107.8271,19.32,20.43,53.43,0,111,13.15,20.14,131.8
"2009-07-06 00:27:00",1037156,3.365,164.5,6.874,0.343,17.58,107.8167,19.29,20.4,53.46,0,111,13.15,20.11,126.5
"2009-07-06 00:27:30",1037157,2.954,174.3,4.421,0.273,17.63,107.8108,19.27,20.37,53.83,0,111,13.15,20.09,136.3
"2009-07-06 00:28:00",1037158,2.78,178.6,3.544,0.162,17.64,107.7861,19.21,20.35,53.46,0,111,13.15,20.03,140.6
"2009-07-06 00:28:30",1037159,2.814,184.3,7.45,0.243,17.61,107.7825,19.2,20.33,53.27,0,111,13.15,20.02,146.3
"2009-07-06 00:29:00",1037160,2.755,170.5,6.021,0.233,17.59,107.7592,19.14,20.29,53.89,0,111,13.15,19.96,132.5
"2009-07-06 00:29:30",1037161,3.146,185,7.351,0.33,17.65,107.7493,19.12,20.27,54.08,0,111,13.16,19.94,147.0
"2009-07-06 00:30:00",1037162,3.875,190.4,7.751,0.383,17.61,107.7328,19.07,20.26,53.96,0,111,13.16,19.89,152.4
"2009-07-06 00:30:30",1037163,4.325,189.4,2.142,0.342,17.64,107.7162,19.03,20.22,54.79,0,111,13.16,19.85,151.4
"2009-07-06 00:31:00",1037164,3.748,178.7,6.571,0.233,17.64,107.711,19.02,20.19,54.96,0,111,13.16,19.84,140.7
"2009-07-06 00:31:30",1037165,3.563,178.5,2.421,0.263,17.65,107.696,18.98,20.17,54.86,0,111,13.16,19.80,140.5
"2009-07-06 00:32:00",1037166,3.633,170.3,4.862,0.25,17.7,107.7029,19,20.13,54.86,0,111,13.16,19.82,132.3
"2009-07-06 00:32:30",1037167,3.461,160.7,2.808,0.194,17.66,107.6766,18.93,20.09,54.72,0,111,13.16,19.75,122.7
"2009-07-06 00:33:00",1037168,3.995,167.4,3.593,0.155,17.64,107.6623,18.89,20.06,55.23,0,111,13.16,19.71,129.4
"2009-07-06 00:33:30",1037169,3.649,160.2,5.009,0.334,17.54,107.646,18.85,20.02,56.19,0,111,13.16,19.67,122.2
"2009-07-06 00:34:00",1037170,4.036,160.2,4.391,0.327,17.66,107.6308,18.81,20,56.22,0,111,13.16,19.63,122.2
"2009-07-06 00:34:30",1037171,4.303,164.1,4.262,0.139,17.62,107.6168,18.78,19.95,56.67,0,111,13.16,19.59,126.1
"2009-07-06 00:35:00",1037172,4.578,162.9,2.568,0.331,17.57,107.5927,18.71,19.91,57.23,0,111,13.17,19.53,124.9
"2009-07-06 00:35:30",1037173,3.47,159.7,3.34,0.283,17.56,107.5798,18.68,19.87,57.58,0,111,13.17,19.50,121.7
"2009-07-06 00:36:00",1037174,3.138,153.9,1.847,0.198,17.71,107.5514,18.61,19.83,57.58,0,111,13.17,19.43,115.9
"2009-07-06 00:36:30",1037175,3.207,152.8,3.045,0.163,17.58,107.5416,18.58,19.79,57.51,0,111,13.17,19.40,114.8
"2009-07-06 00:37:00",1037176,3.043,154.1,2.284,0.141,17.73,107.5174,18.52,19.76,57.9,0,111,13.17,19.34,116.1
"2009-07-06 00:37:30",1037177,3.148,159.7,5.044,0.284,17.72,107.5056,18.49,19.71,58.13,0,110.9,13.17,19.31,121.7
"2009-07-06 00:38:00",1037178,3.085,163.2,2.004,0.254,17.73,107.487,18.44,19.69,57.86,0,110.9,13.18,19.26,125.2
"2009-07-06 00:38:30",1037179,2.448,168.1,4.716,0.086,17.76,107.4922,18.46,19.64,57.52,0,110.9,13.18,19.27,130.1
"2009-07-06 00:39:00",1037180,2.735,172.6,3.495,0.202,17.7,107.4784,18.42,19.61,57.49,0,110.9,13.18,19.24,134.6
"2009-07-06 00:39:30",1037181,2.48,178.8,2.519,0.083,17.7,107.4752,18.41,19.57,57.45,0,110.9,13.18,19.23,140.8
"2009-07-06 00:40:00",1037182,2.687,178.5,2.516,0.131,17.77,107.4661,18.39,19.52,57.14,0,110.9,13.18,19.21,140.5
"2009-07-06 00:40:30",1037183,2.813,166.6,4.997,0.13,17.7,107.4525,18.36,19.5,57.49,0,110.9,13.17,19.17,128.6
"2009-07-06 00:41:00",1037184,2.66,163.3,5.562,0.115,17.58,107.4508,18.35,19.48,58.03,0,110.9,13.18,19.17,125.3
"2009-07-06 00:41:30",1037185,2.394,179.1,9.2,0.272,17.7,107.4334,18.31,19.45,58.19,0,110.9,13.18,19.12,141.1
"2009-07-06 00:42:00",1037186,2.007,191.2,6.176,0.121,17.72,107.4185,18.27,19.42,57.88,0,110.9,13.17,19.08,153.2
"2009-07-06 00:42:30",1037187,2.064,196.5,4.583,0.115,17.7,107.4174,18.27,19.39,57.78,0,110.9,13.17,19.08,158.5
"2009-07-06 00:43:00",1037188,1.975,191.2,3.985,0.159,17.75,107.4151,18.26,19.38,57.75,0,110.9,13.18,19.08,153.2
"2009-07-06 00:43:30",1037189,2.065,197.1,3.942,0.077,17.69,107.4023,18.23,19.35,57.77,0,110.9,13.18,19.04,159.1
"2009-07-06 00:44:00",1037190,2.251,195.2,2.376,0.148,17.73,107.3923,18.2,19.33,57.77,0,110.9,13.18,19.02,157.2
"2009-07-06 00:44:30",1037191,2.445,198.8,1.72,0.114,17.68,107.3864,18.19,19.31,57.86,0,110.9,13.18,19.00,160.8
"2009-07-06 00:45:00",1037192,2.331,199.3,1.553,0.071,17.85,107.3885,18.19,19.3,57.9,0,110.9,13.18,19.01,161.3
"2009-07-06 00:45:30",1037193,2.722,198.9,4.473,0.18,17.67,107.394,18.21,19.29,58,0,110.9,13.18,19.02,160.9
"2009-07-06 00:46:00",1037194,3.031,197.2,2.554,0.118,17.72,107.3882,18.19,19.28,58.35,0,110.8,13.18,19.01,159.2
"2009-07-06 00:46:30",1037195,2.999,192,2.403,0.077,17.76,107.382,18.17,19.27,58.56,0,110.8,13.18,18.99,154.0
"2009-07-06 00:47:00",1037196,2.879,197.4,2.945,0.127,17.85,107.3771,18.16,19.25,58.64,0,110.8,13.19,18.98,159.4
"2009-07-06 00:47:30",1037197,2.783,193.9,3.612,0.124,17.81,107.3774,18.16,19.25,58.72,0,110.8,13.19,18.98,155.9
"2009-07-06 00:48:00",1037198,2.787,190.6,3.002,0.08,17.83,107.3777,18.16,19.23,58.8,0,110.8,13.19,18.98,152.6
"2009-07-06 00:48:30",1037199,2.769,184.3,2.153,0.113,17.79,107.3819,18.17,19.21,58.84,0,110.8,13.19,18.99,146.3
"2009-07-06 00:49:00",1037200,3.354,179.7,2.195,0.175,17.68,107.3701,18.14,19.2,58.95,0,110.8,13.19,18.96,141.7
"2009-07-06 00:49:30",1037201,3.244,180.3,3.366,0.123,17.67,107.3595,18.12,19.2,59.32,0,110.8,13.19,18.93,142.3
"2009-07-06 00:50:00",1037202,3.036,176.9,2.332,0.143,17.78,107.3524,18.1,19.19,59.75,0,110.8,13.19,18.91,138.9
"2009-07-06 00:50:30",1037203,3.22,179.7,2.267,0.117,17.56,107.3524,18.1,19.18,59.95,0,110.8,13.19,18.91,141.7
"2009-07-06 00:51:00",1037204,3.659,180.4,1.585,0.271,17.64,107.3522,18.1,19.17,59.89,0,110.8,13.19,18.91,142.4
"2009-07-06 00:51:30",1037205,3.968,178.3,4.505,0.341,17.63,107.335,18.05,19.14,59.72,0,110.8,13.19,18.87,140.3
"2009-07-06 00:52:00",1037206,3.523,171.6,3.089,0.476,17.61,107.3232,18.02,19.14,59.5,0,110.8,13.19,18.84,133.6
"2009-07-06 00:52:30",1037207,3.344,170.9,4.535,0.457,17.66,107.3187,18.01,19.12,59.45,0,110.8,13.19,18.83,132.9
"2009-07-06 00:53:00",1037208,3.473,168.6,4.09,0.261,17.66,107.3214,18.02,19.11,59.51,0,110.8,13.19,18.83,130.6
"2009-07-06 00:53:30",1037209,3.197,168.7,3.688,0.233,17.7,107.3088,17.99,19.1,59.63,0,110.8,13.2,18.80,130.7
"2009-07-06 00:54:00",1037210,3.21,171.3,3.548,0.194,17.66,107.3032,17.97,19.09,59.57,0,110.8,13.2,18.79,133.3
"2009-07-06 00:54:30",1037211,3.11,174.8,2.559,0.205,17.64,107.3088,17.99,19.06,59.65,0,110.8,13.2,18.80,136.8
"2009-07-06 00:55:00",1037212,2.794,176.2,1.038,0.069,17.72,107.3096,17.99,19.05,59.83,0,110.8,13.2,18.80,138.2
"2009-07-06 00:55:30",1037213,2.691,173.9,1.636,0.126,17.62,107.292,17.94,19.03,59.87,0,110.8,13.2,18.76,135.9
"2009-07-06 00:56:00",1037214,2.643,170.2,2.992,0.169,17.56,107.2848,17.93,19,59.86,0,110.8,13.2,18.74,132.2
"2009-07-06 00:56:30",1037215,2.682,170.1,5.172,0.173,17.58,107.2844,17.92,19,59.81,0,110.8,13.2,18.74,132.1
"2009-07-06 00:57:00",1037216,3.255,174.7,3.173,0.311,17.55,107.2875,17.93,18.99,59.81,0,110.8,13.2,18.75,136.7
"2009-07-06 00:57:30",1037217,3.034,174.7,3.059,0.134,17.62,107.2846,17.92,18.98,59.83,0,110.8,13.2,18.74,136.7
"2009-07-06 00:58:00",1037218,2.916,178.1,2.576,0.089,17.76,107.2692,17.89,18.95,59.93,0,110.8,13.2,18.70,140.1
"2009-07-06 00:58:30",1037219,2.755,180.2,1.142,0.084,17.52,107.2562,17.85,18.95,59.98,0,110.8,13.2,18.67,142.2
"2009-07-06 00:59:00",1037220,2.659,183.8,3.498,0.05,17.4,107.2537,17.85,18.93,59.96,0,110.8,13.2,18.66,145.8
"2009-07-06 00:59:30",1037221,2.44,192.2,2.045,0.121,17.58,107.2537,17.85,18.92,60,0,110.8,13.2,18.66,154.2
"2009-07-06 01:00:00",1037222,2.43,194.6,2.961,0.087,17.53,107.2537,17.85,18.93,60.03,0,110.8,13.2,18.66,156.6
"2009-07-06 01:00:30",1037223,2.521,196.2,2.783,0.11,17.45,107.2537,17.85,18.91,60.02,0,110.8,13.2,18.66,158.2
"2009-07-06 01:01:00",1037224,2.94,203,1.424,0.166,17.65,107.2534,17.84,18.91,60.02,0,110.8,13.2,18.66,165.0
"2009-07-06 01:01:30",1037225,2.882,207.1,1.273,0.082,17.56,107.2515,17.84,18.9,60.05,0,110.8,13.2,18.65,169.1
"2009-07-06 01:02:00",1037226,2.84,208.9,1.768,0.126,17.38,107.2456,17.82,18.89,60.06,0,110.8,13.2,18.64,170.9
"2009-07-06 01:02:30",1037227,2.543,212.1,2.776,0.075,17.41,107.2417,17.81,18.89,60.07,0,110.8,13.2,18.63,174.1
"2009-07-06 01:03:00",1037228,2.346,216.4,2.076,0.081,17.32,107.2418,17.82,18.88,59.97,0,110.8,13.21,18.63,178.4
"2009-07-06 01:03:30",1037229,2.047,215.1,1.026,0.122,17.2,107.2439,17.82,18.89,59.75,0,110.8,13.21,18.63,177.1
"2009-07-06 01:04:00",1037230,1.715,212.8,2.62,0.091,17.23,107.2533,17.84,18.88,59.91,0,110.8,13.21,18.66,174.8
"2009-07-06 01:04:30",1037231,1.801,213.4,2.552,0.101,17.19,107.2587,17.86,18.9,60.02,0,110.8,13.21,18.67,175.4
"2009-07-06 01:05:00",1037232,1.456,205.3,4.824,0.106,17.1,107.2625,17.87,18.89,59.75,0,110.8,13.21,18.68,167.3
"2009-07-06 01:05:30",1037233,1.417,200.8,3.877,0.133,17.07,107.2637,17.87,18.91,59.61,0,110.8,13.21,18.69,162.8
"2009-07-06 01:06:00",1037234,1.365,197.5,2.964,0.079,17.05,107.2649,17.87,18.9,59.49,0,110.8,13.21,18.69,159.5
"2009-07-06 01:06:30",1037235,1.429,183.2,4.01,0.234,17.02,107.2658,17.88,18.92,59.14,0,110.8,13.21,18.69,145.2
"2009-07-06 01:07:00",1037236,1.897,192.1,2.452,0.116,16.98,107.2815,17.92,18.93,58.94,0,110.8,13.21,18.73,154.1
"2009-07-06 01:07:30",1037237,1.765,184,3.223,0.091,16.89,107.2954,17.95,18.94,58.99,0,110.8,13.21,18.77,146.0
"2009-07-06 01:08:00",1037238,1.751,182.7,4.673,0.126,16.93,107.3007,17.97,18.97,58.87,0,110.8,13.21,18.78,144.7
"2009-07-06 01:08:30",1037239,1.672,188.7,4.193,0.084,16.91,107.3013,17.97,18.98,58.8,0,110.8,13.21,18.78,150.7
"2009-07-06 01:09:00",1037240,2.047,191.5,2.266,0.138,16.84,107.3103,17.99,19,58.68,0,110.8,13.21,18.81,153.5
"2009-07-06 01:09:30",1037241,2.423,190.5,2.068,0.101,16.86,107.3307,18.04,19.02,58.77,0,110.8,13.21,18.86,152.5
"2009-07-06 01:10:00",1037242,2.256,195.7,2.921,0.172,16.96,107.3342,18.05,19.04,58.53,0,110.8,13.21,18.87,157.7
"2009-07-06 01:10:30",1037243,2.332,199.4,1.364,0.139,16.82,107.3375,18.06,19.05,58.24,0,110.8,13.21,18.88,161.4
"2009-07-06 01:11:00",1037244,2.3,198.8,1.784,0.052,16.87,107.3573,18.11,19.08,58.52,0,110.8,13.21,18.93,160.8
"2009-07-06 01:11:30",1037245,2.299,199.6,1.801,0.037,16.97,107.3649,18.13,19.11,58.67,0,110.8,13.21,18.95,161.6
"2009-07-06 01:12:00",1037246,2.462,204.2,2.041,0.058,16.72,107.3672,18.14,19.14,58.63,0,110.8,13.21,18.95,166.2
"2009-07-06 01:12:30",1037247,2.531,205.4,1.412,0.051,16.68,107.384,18.18,19.16,58.57,0,110.8,13.21,19.00,167.4
"2009-07-06 01:13:00",1037248,2.461,206.6,1.329,0.051,16.88,107.3992,18.22,19.19,58.49,0,110.8,13.21,19.03,168.6
"2009-07-06 01:13:30",1037249,2.421,207.3,0.928,0.055,17,107.4003,18.22,19.21,58.37,0,110.8,13.21,19.04,169.3
"2009-07-06 01:14:00",1037250,2.441,210.3,0.98,0.067,17.04,107.4162,18.26,19.24,58.23,0,110.8,13.21,19.08,172.3
"2009-07-06 01:14:30",1037251,2.321,212,1.09,0.043,17.1,107.4303,18.3,19.26,58.04,0,110.8,13.21,19.11,174.0
"2009-07-06 01:15:00",1037252,2.147,212.1,1.246,0.062,16.99,107.429,18.3,19.3,57.9,0,110.8,13.2,19.11,174.1
"2009-07-06 01:15:30",1037253,2.082,210,1.586,0.083,17.03,107.4456,18.34,19.31,57.7,0,110.8,13.2,19.15,172.0
"2009-07-06 01:16:00",1037254,1.914,208.8,1.463,0.041,17.03,107.4628,18.38,19.35,57.49,0,110.8,13.2,19.20,170.8
"2009-07-06 01:16:30",1037255,1.862,205.6,1.34,0.045,17.01,107.4616,18.38,19.38,57.26,0,110.8,13.2,19.19,167.6
"2009-07-06 01:17:00",1037256,1.646,202.3,1.389,0.098,17.14,107.4812,18.43,19.4,57.09,0,110.8,13.2,19.25,164.3
"2009-07-06 01:17:30",1037257,1.615,198,1.682,0.069,17.09,107.496,18.47,19.43,57.02,0,110.8,13.2,19.28,160.0
"2009-07-06 01:18:00",1037258,1.363,206.1,4.686,0.198,17.21,107.4953,18.47,19.46,56.65,0,110.8,13.2,19.28,168.1
"2009-07-06 01:18:30",1037259,1.222,207.5,3.133,0.066,17.27,107.5017,18.48,19.48,56.39,0,110.8,13.2,19.30,169.5
"2009-07-06 01:19:00",1037260,1.559,199.7,3.376,0.151,17.2,107.5219,18.53,19.5,56.21,0,110.8,13.2,19.35,161.7
"2009-07-06 01:19:30",1037261,1.739,194,1.809,0.068,17.24,107.53,18.55,19.53,56.09,0,110.8,13.2,19.37,156.0
"2009-07-06 01:20:00",1037262,2.033,193,0.939,0.071,17.38,107.5303,18.55,19.55,56.08,0,110.8,13.2,19.37,155.0
"2009-07-06 01:20:30",1037263,2.069,194.4,2.783,0.033,17.38,107.5374,18.57,19.58,56.27,0,110.8,13.2,19.39,156.4
"2009-07-06 01:21:00",1037264,2.221,199.7,0.843,0.062,17.65,107.551,18.61,19.57,56.52,0,110.8,13.21,19.42,161.7
"2009-07-06 01:21:30",1037265,2.293,199,0.742,0.03,17.79,107.56,18.63,19.59,56.63,0,110.8,13.21,19.45,161.0
"2009-07-06 01:22:00",1037266,2.366,196.8,1.056,0.038,17.7,107.5607,18.63,19.6,56.67,0,110.8,13.21,19.45,158.8
"2009-07-06 01:22:30",1037267,2.454,196.5,0.567,0.032,17.71,107.5631,18.64,19.62,56.66,0,110.8,13.21,19.46,158.5
"2009-07-06 01:23:00",1037268,2.469,195.8,0.874,0.025,17.8,107.5625,18.64,19.65,56.6,0,110.8,13.21,19.45,157.8
"2009-07-06 01:23:30",1037269,2.567,192.3,1.067,0.055,17.86,107.5649,18.64,19.66,56.47,0,110.8,13.21,19.46,154.3
"2009-07-06 01:24:00",1037270,2.688,187.5,3.381,0.131,18.02,107.5661,18.65,19.66,56.09,0,110.8,13.21,19.46,149.5
"2009-07-06 01:24:30",1037271,2.696,183.3,1.305,0.1,18.08,107.5664,18.65,19.66,55.64,0,110.8,13.21,19.46,145.3
"2009-07-06 01:25:00",1037272,2.943,180.7,1.321,0.095,18.04,107.5728,18.66,19.67,55.32,0,110.8,13.21,19.48,142.7
"2009-07-06 01:25:30",1037273,2.978,181.4,1.23,0.068,18,107.5737,18.67,19.67,54.84,0,110.8,13.21,19.48,143.4
"2009-07-06 01:26:00",1037274,3.059,182.9,1.465,0.11,18.09,107.5706,18.66,19.66,54.73,0,110.8,13.21,19.48,144.9
"2009-07-06 01:26:30",1037275,3.14,187.2,1.881,0.094,17.99,107.5601,18.63,19.67,54.97,0,110.8,13.21,19.45,149.2
"2009-07-06 01:27:00",1037276,3.359,187,1.185,0.132,18.06,107.5517,18.61,19.65,55.36,0,110.8,13.21,19.43,149.0
"2009-07-06 01:27:30",1037277,3.146,187.1,0.989,0.056,18.11,107.5523,18.61,19.64,55.35,0,110.8,13.21,19.43,149.1
"2009-07-06 01:28:00",1037278,3.079,185.9,1.246,0.066,18.09,107.5578,18.63,19.64,55.35,0,110.8,13.21,19.44,147.9
"2009-07-06 01:28:30",1037279,2.97,182.4,1.549,0.064,18.02,107.546,18.6,19.63,55.46,0,110.8,13.21,19.41,144.4
"2009-07-06 01:29:00",1037280,3.094,187,0.933,0.169,17.83,107.5292,18.55,19.62,55.9,0,110.8,13.21,19.37,149.0
"2009-07-06 01:29:30",1037281,3.812,186.5,1.183,0.251,17.77,107.5261,18.54,19.6,56.65,0,110.8,13.21,19.36,148.5
"2009-07-06 01:30:00",1037282,4.183,185.9,1.272,0.116,17.73,107.5261,18.54,19.59,57.31,0,110.8,13.21,19.36,147.9
"2009-07-06 01:30:30",1037283,4.041,186.7,1.085,0.098,17.79,107.5152,18.52,19.58,57.54,0,110.8,13.21,19.33,148.7
"2009-07-06 01:31:00",1037284,3.536,188.7,1.176,0.189,17.9,107.4955,18.47,19.56,57.49,0,110.8,13.21,19.28,150.7
"2009-07-06 01:31:30",1037285,3.143,191.7,0.546,0.033,17.91,107.4924,18.46,19.53,57.22,0,110.8,13.21,19.27,153.7
"2009-07-06 01:32:00",1037286,3.14,194,0.728,0.024,17.84,107.4741,18.41,19.52,57.14,0,110.8,13.21,19.23,156.0
"2009-07-06 01:32:30",1037287,3.303,194.5,1.306,0.078,17.86,107.4589,18.37,19.49,57.18,0,110.8,13.21,19.19,156.5
"2009-07-06 01:33:00",1037288,3.553,194.6,1.137,0.148,17.97,107.4586,18.37,19.47,57.33,0,110.8,13.21,19.19,156.6
"2009-07-06 01:33:30",1037289,3.619,195.2,1.857,0.096,17.95,107.448,18.34,19.45,57.5,0,110.8,13.21,19.16,157.2
"2009-07-06 01:34:00",1037290,3.813,197.9,1.017,0.105,17.76,107.4263,18.29,19.42,57.58,0,110.8,13.21,19.10,159.9
"2009-07-06 01:34:30",1037291,3.654,200.4,1.623,0.112,18.01,107.4249,18.28,19.4,57.65,0,110.8,13.21,19.10,162.4
"2009-07-06 01:35:00",1037292,3.508,200.7,2.003,0.057,18.22,107.4077,18.24,19.37,57.58,0,110.8,13.21,19.06,162.7
"2009-07-06 01:35:30",1037293,3.577,199,1.136,0.095,18.02,107.3917,18.2,19.33,57.68,0,110.8,13.21,19.02,161.0
"2009-07-06 01:36:00",1037294,3.695,198.5,0.763,0.056,17.86,107.3909,18.2,19.32,57.97,0,110.8,13.21,19.01,160.5
"2009-07-06 01:36:30",1037295,3.604,198.6,0.517,0.053,18.05,107.3744,18.16,19.29,58.2,0,110.8,13.21,18.97,160.6
"2009-07-06 01:37:00",1037296,3.624,197.8,1.058,0.081,17.99,107.3631,18.13,19.26,58.35,0,110.8,13.22,18.94,159.8
"2009-07-06 01:37:30",1037297,3.741,197,1.139,0.095,17.8,107.371,18.15,19.24,58.5,0,110.8,13.22,18.96,159.0
"2009-07-06 01:38:00",1037298,3.743,194.6,0.789,0.062,17.77,107.358,18.11,19.22,58.44,0,110.8,13.22,18.93,156.6
"2009-07-06 01:38:30",1037299,3.444,194.9,0.674,0.082,18.1,107.3487,18.09,19.19,58.59,0,110.8,13.22,18.90,156.9
"2009-07-06 01:39:00",1037300,3.303,193.8,0.662,0.088,17.98,107.35,18.09,19.16,58.82,0,110.7,13.22,18.91,155.8
"2009-07-06 01:39:30",1037301,3.255,193.8,0.569,0.031,18.03,107.3331,18.05,19.14,58.88,0,110.7,13.22,18.86,155.8
"2009-07-06 01:40:00",1037302,3.22,193.4,0.527,0.032,17.94,107.321,18.02,19.11,58.88,0,110.7,13.22,18.83,155.4
"2009-07-06 01:40:30",1037303,3.661,194.5,1.445,0.278,17.99,107.3234,18.02,19.08,59.01,0,110.7,13.23,18.84,156.5
"2009-07-06 01:41:00",1037304,4.2,193.2,1.823,0.156,17.9,107.3123,18,19.07,58.55,0,110.7,13.23,18.81,155.2
"2009-07-06 01:41:30",1037305,4.878,191.5,1.489,0.365,17.63,107.2935,17.95,19.04,58.42,0,110.7,13.23,18.76,153.5
"2009-07-06 01:42:00",1037306,5.577,191.3,1.335,0.169,17.64,107.2924,17.94,19.03,59.44,0,110.7,13.23,18.76,153.3
"2009-07-06 01:42:30",1037307,5.177,191.2,2.209,0.233,17.74,107.2856,17.93,19,59.51,0,110.7,13.23,18.74,153.2
"2009-07-06 01:43:00",1037308,5.516,189.5,1.354,0.088,17.7,107.2617,17.87,18.97,59.25,0,110.7,13.23,18.68,151.5
"2009-07-06 01:43:30",1037309,5.516,189.3,1.116,0.07,17.72,107.2586,17.86,18.95,59.37,0,110.7,13.23,18.67,151.3
"2009-07-06 01:44:00",1037310,5.73,187.1,0.719,0.096,17.82,107.2429,17.82,18.92,58.77,0,110.7,13.23,18.63,149.1
"2009-07-06 01:44:30",1037311,5.933,188.5,0.7,0.107,17.76,107.2248,17.77,18.88,57.93,0,110.7,13.24,18.59,150.5
"2009-07-06 01:45:00",1037312,6.012,189.8,0.794,0.072,17.7,107.2243,17.77,18.86,57.36,0,110.7,13.24,18.58,151.8
"2009-07-06 01:45:30",1037313,5.787,191.5,0.71,0.089,17.91,107.1956,17.7,18.83,56.96,0,110.7,13.24,18.51,153.5
"2009-07-06 01:46:00",1037314,5.705,191.6,0.851,0.052,18.01,107.1911,17.69,18.8,57.23,0,110.7,13.24,18.50,153.6
"2009-07-06 01:46:30",1037315,5.326,191.7,1.373,0.226,17.99,107.1773,17.65,18.77,57.74,0,110.7,13.24,18.46,153.7
"2009-07-06 01:47:00",1037316,4.896,190.6,1.537,0.084,18.07,107.1588,17.6,18.72,58.14,0,110.7,13.24,18.42,152.6